Weather History for Friday Harbor, WA

Change the Weather History Date:

Monday, January 14, 2013

  Actual Average Record
Temperature  
Mean Temperature 36 °F -  
Max Temperature 37 °F 43 °F 55 °F (2011)
Min Temperature 35 °F 36 °F 19 °F (2007)
Degree Days  
Heating Degree Days 29    
Moisture  
Dew Point 32 °F    
Average Humidity 87    
Maximum Humidity 93    
Minimum Humidity 75    
Precipitation  
Precipitation 0.00 in - - ()
Sea Level Pressure  
Sea Level Pressure 30.52 in    
Wind  
Wind Speed 5 mph (ESE)    
Max Wind Speed 9 mph    
Max Gust Speed -    
Visibility 10 miles    
Events      
Averages and records for this station are not official NWS values.
T = Trace of Precipitation, MM = Missing Value Source: NWS Daily Summary

Daily Weather History Graph

Daily Weather History Graph

Search for Another Location

Airport:

Trip Planner

Search our weather history database for the weather conditions in past years. The results will help you decide how hot, cold, wet, or windy it might be!

Date:

Astronomy

Jan. 14, 2013 Rise Set
Actual Time 7:59 AM PST 4:43 PM PST
Civil Twilight 7:23 AM PST 5:19 PM PST
Nautical Twilight 6:44 AM PST 5:58 PM PST
Astronomical Twilight 6:07 AM PST 6:35 PM PST
Moon 9:15 AM PST (1/14) 8:58 PM PST (1/14)
Length of Visible Light 9h 55m
Length of Day
8h 44m
Waxing Crescent, 12% of the Moon is Illuminated
Jan 14
Waxing Crescent
Jan 18
First Quarter
Jan 26
Full
Feb 3
Last Quarter
Feb 9
New

Hourly Weather History & Observations

Time (PST) Temp. Windchill Dew Point Humidity Pressure Visibility Wind Dir Wind Speed Gust Speed Precip Events Conditions
12:11 AM 35.6 °F 29.9 °F 28.4 °F 75% 30.48 in 10.0 mi ESE 6.9 mph - N/A   Overcast
12:53 AM 36.0 °F 32.1 °F 30.0 °F 79% 30.49 in 10.0 mi ESE 4.6 mph - N/A   Overcast
1:53 AM 36.0 °F 33.3 °F 30.0 °F 79% 30.49 in 10.0 mi NE 3.5 mph - N/A   Overcast
2:53 AM 36.0 °F 31.1 °F 30.0 °F 79% 30.49 in 10.0 mi ESE 5.8 mph - N/A   Overcast
3:53 AM 36.0 °F 31.1 °F 30.9 °F 82% 30.49 in 10.0 mi ESE 5.8 mph - N/A   Overcast
4:46 AM 35.6 °F 30.7 °F 30.2 °F 81% 30.48 in 10.0 mi ESE 5.8 mph - N/A   Overcast
4:53 AM 36.0 °F 30.3 °F 30.9 °F 82% 30.48 in 10.0 mi ESE 6.9 mph - N/A   Overcast
5:53 AM 36.0 °F 31.1 °F 30.9 °F 82% 30.48 in 10.0 mi SE 5.8 mph - N/A   Overcast
6:15 AM 35.6 °F 32.8 °F 32.0 °F 87% 30.47 in 10.0 mi SSE 3.5 mph - N/A   Overcast
6:53 AM 36.0 °F 29.0 °F 32.0 °F 86% 30.48 in 10.0 mi ESE 9.2 mph - N/A   Overcast
7:53 AM 36.0 °F 31.1 °F 33.1 °F 89% 30.49 in 10.0 mi SE 5.8 mph - N/A   Overcast
8:39 AM 35.6 °F 29.9 °F 33.8 °F 93% 30.49 in 7.0 mi ESE 6.9 mph - N/A   Overcast
8:53 AM 36.0 °F 31.1 °F 33.1 °F 89% 30.50 in 9.0 mi ESE 5.8 mph - N/A   Overcast
9:31 AM 35.6 °F 30.7 °F 33.8 °F 93% 30.49 in 10.0 mi ESE 5.8 mph - N/A   Overcast
9:53 AM 36.0 °F 30.3 °F 33.1 °F 89% 30.50 in 10.0 mi ESE 6.9 mph - N/A   Overcast
10:53 AM 36.0 °F 29.6 °F 32.0 °F 86% 30.51 in 10.0 mi ESE 8.1 mph - N/A   Overcast
11:53 AM 37.0 °F 31.0 °F 32.0 °F 82% 30.51 in 10.0 mi East 8.1 mph - N/A   Overcast
12:53 PM 37.0 °F 31.0 °F 32.0 °F 82% 30.50 in 10.0 mi ESE 8.1 mph - N/A   Overcast
1:53 PM 37.0 °F 31.6 °F 33.1 °F 86% 30.51 in 10.0 mi SE 6.9 mph - N/A   Overcast
2:53 PM 37.0 °F 31.0 °F 33.1 °F 86% 30.52 in 10.0 mi SE 8.1 mph - 0.00 in   Overcast
3:53 PM 37.0 °F 31.6 °F 33.1 °F 86% 30.51 in 9.0 mi ESE 6.9 mph - 0.00 in   Overcast
4:53 PM 36.0 °F 31.1 °F 33.1 °F 89% 30.53 in 10.0 mi East 5.8 mph - N/A   Overcast
5:53 PM 36.0 °F 31.1 °F 33.1 °F 89% 30.54 in 9.0 mi ESE 5.8 mph - 0.00 in   Overcast
6:53 PM 36.0 °F 32.1 °F 33.1 °F 89% 30.55 in 10.0 mi ESE 4.6 mph - 0.00 in   Overcast
7:53 PM 36.0 °F - 33.1 °F 89% 30.56 in 10.0 mi Calm Calm - N/A   Overcast
8:24 PM 35.6 °F - 33.8 °F 93% 30.56 in 10.0 mi Calm Calm - N/A   Overcast
8:53 PM 36.0 °F - 33.1 °F 89% 30.57 in 10.0 mi Calm Calm - N/A   Overcast
9:44 PM 35.6 °F - 33.8 °F 93% 30.57 in 10.0 mi Calm Calm - N/A   Overcast
9:53 PM 36.0 °F - 33.1 °F 89% 30.58 in 10.0 mi Calm Calm - N/A   Overcast
10:20 PM 35.6 °F - 33.8 °F 93% 30.57 in 10.0 mi Calm Calm - N/A   Overcast
10:53 PM 36.0 °F - 33.1 °F 89% 30.58 in 9.0 mi Calm Calm - N/A   Overcast
11:24 PM 35.6 °F - 33.8 °F 93% 30.58 in 8.0 mi Calm Calm - N/A   Overcast
11:53 PM 36.0 °F - 34.0 °F 93% 30.60 in 7.0 mi Calm Calm - N/A   Overcast